Weather History for KETB - March, 2014

Change the Weather History Date:

Monday, March 10, 2014

  Actual Average Record
Temperature  
Mean Temperature 44 °F -  
Max Temperature 53 °F 39 °F 62 °F (1977)
Min Temperature 35 °F 23 °F -2 °F (1933)
Degree Days  
Heating Degree Days 21    
Moisture  
Dew Point 32 °F    
Average Humidity 67    
Maximum Humidity 87    
Minimum Humidity 44    
Precipitation  
Precipitation 0.00 in - - ()
Sea Level Pressure  
Sea Level Pressure 29.61 in    
Wind  
Wind Speed 8 mph (WSW)    
Max Wind Speed 15 mph    
Max Gust Speed 21 mph    
Visibility 10 miles    
Events      
Averages and records for this station are not official NWS values.
T = Trace of Precipitation, MM = Missing Value Source: NWS Daily Summary

Daily Weather History Graph

Daily Weather History Graph

Search for Another Location

Airport or City:

Trip Planner

Search our weather history database for the weather conditions in past years. The results will help you decide how hot, cold, wet, or windy it might be!

Date:

Astronomy

Mar. 10, 2014 Rise Set
Actual Time 7:13 AM CDT 6:52 PM CDT
Civil Twilight 6:44 AM CDT 7:21 PM CDT
Nautical Twilight 6:11 AM CDT 7:54 PM CDT
Astronomical Twilight 5:38 AM CDT 8:27 PM CDT
Moon 1:29 PM CDT (3/10) 3:32 AM CDT (3/10)
Length of Visible Light 12h 36m
Length of Day
11h 39m
Waxing Gibbous, 70% of the Moon is Illuminated
Mar 10
Waxing Gibbous
Mar 16
Full
Mar 23
Last Quarter
Mar 30
New
Apr 7
First Quarter

Hourly Weather History & Observations

Time (CDT) Temp. Windchill Dew Point Humidity Pressure Visibility Wind Dir Wind Speed Gust Speed Precip Events Conditions
12:10 AM 37.4 °F 30.8 °F 30.2 °F 75% 29.69 in 10.0 mi WSW 9.2 mph - N/A   Clear
12:30 AM 37.4 °F 31.4 °F 30.2 °F 75% 29.68 in 10.0 mi SW 8.1 mph - N/A   Clear
12:50 AM 35.6 °F 30.7 °F 30.2 °F 81% 29.68 in 10.0 mi SW 5.8 mph - N/A   Clear
1:10 AM 37.4 °F 31.4 °F 30.2 °F 75% 29.67 in 10.0 mi WSW 8.1 mph - N/A   Clear
1:30 AM 37.4 °F 31.4 °F 32.0 °F 81% 29.67 in 10.0 mi WSW 8.1 mph - N/A   Clear
1:50 AM 37.4 °F 30.8 °F 32.0 °F 81% 29.67 in 10.0 mi WSW 9.2 mph - N/A   Scattered Clouds
2:10 AM 37.4 °F 30.8 °F 32.0 °F 81% 29.67 in 10.0 mi WSW 9.2 mph - N/A   Scattered Clouds
2:30 AM 37.4 °F 31.4 °F 32.0 °F 81% 29.67 in 10.0 mi WSW 8.1 mph - N/A   Clear
2:50 AM 37.4 °F 30.8 °F 32.0 °F 81% 29.66 in 10.0 mi West 9.2 mph - N/A   Mostly Cloudy
3:10 AM 37.4 °F 30.3 °F 32.0 °F 81% 29.65 in 10.0 mi West 10.4 mph - N/A   Overcast
3:30 AM 37.4 °F 30.8 °F 32.0 °F 81% 29.65 in 10.0 mi West 9.2 mph - N/A   Overcast
3:50 AM 37.4 °F 32.8 °F 32.0 °F 81% 29.65 in 10.0 mi WSW 5.8 mph - N/A   Mostly Cloudy
4:10 AM 37.4 °F 32.8 °F 32.0 °F 81% 29.65 in 10.0 mi WSW 5.8 mph - N/A   Scattered Clouds
4:30 AM 35.6 °F 31.7 °F 32.0 °F 87% 29.64 in 10.0 mi WSW 4.6 mph - N/A   Clear
4:50 AM 37.4 °F 32.8 °F 32.0 °F 81% 29.64 in 10.0 mi WSW 5.8 mph - N/A   Clear
5:10 AM 35.6 °F 32.8 °F 30.2 °F 81% 29.63 in 10.0 mi SW 3.5 mph - N/A   Clear
5:30 AM 35.6 °F - 32.0 °F 87% 29.63 in 10.0 mi Calm Calm - N/A   Clear
5:50 AM 35.6 °F 29.9 °F 32.0 °F 87% 29.62 in 10.0 mi SW 6.9 mph - N/A   Clear
6:10 AM 35.6 °F 29.9 °F 32.0 °F 87% 29.62 in 10.0 mi SW 6.9 mph - N/A   Clear
6:30 AM 35.6 °F 29.2 °F 32.0 °F 87% 29.62 in 10.0 mi WSW 8.1 mph - N/A   Clear
6:50 AM 35.6 °F 29.9 °F 30.2 °F 81% 29.62 in 10.0 mi SW 6.9 mph - N/A   Clear
7:10 AM 35.6 °F 29.2 °F 30.2 °F 81% 29.62 in 10.0 mi SW 8.1 mph - N/A   Clear
7:30 AM 35.6 °F 29.9 °F 30.2 °F 81% 29.62 in 10.0 mi SW 6.9 mph - N/A   Clear
7:50 AM 35.6 °F 29.9 °F 32.0 °F 87% 29.63 in 10.0 mi WSW 6.9 mph - N/A   Clear
8:10 AM 37.4 °F 31.4 °F 32.0 °F 81% 29.62 in 10.0 mi SW 8.1 mph - N/A   Clear
8:30 AM 39.2 °F 35.0 °F 32.0 °F 75% 29.62 in 10.0 mi SW 5.8 mph - N/A   Clear
8:50 AM 41.0 °F - 32.0 °F 70% 29.62 in 10.0 mi Calm Calm - N/A   Clear
9:10 AM 41.0 °F 36.4 °F 32.0 °F 70% 29.61 in 10.0 mi SW 6.9 mph - N/A   Clear
9:30 AM 42.8 °F 37.5 °F 32.0 °F 66% 29.61 in 10.0 mi WSW 9.2 mph - N/A   Clear
9:50 AM 42.8 °F 37.0 °F 32.0 °F 66% 29.60 in 10.0 mi SW 10.4 mph - N/A   Clear
10:10 AM 42.8 °F 36.6 °F 32.0 °F 66% 29.60 in 10.0 mi SW 11.5 mph - N/A   Clear
10:30 AM 44.6 °F 40.2 °F 32.0 °F 61% 29.60 in 10.0 mi WSW 8.1 mph - N/A   Clear
10:50 AM 44.6 °F 38.4 °F 32.0 °F 61% 29.60 in 10.0 mi West 12.7 mph - N/A   Clear
11:15 AM 46.4 °F 40.4 °F 32.0 °F 57% 29.60 in 10.0 mi West 13.8 mph 19.6 mph N/A   Clear
11:30 AM 46.4 °F 41.1 °F 32.0 °F 57% 29.59 in 10.0 mi WSW 11.5 mph - N/A   Clear
11:50 AM 46.4 °F 42.4 °F 32.0 °F 57% 29.58 in 10.0 mi WSW 8.1 mph - N/A   Clear
12:10 PM 48.2 °F - 32.0 °F 54% 29.58 in 10.0 mi West 15.0 mph 18.4 mph N/A   Clear
12:30 PM 48.2 °F - 32.0 °F 54% 29.59 in 10.0 mi West 13.8 mph - N/A   Clear
12:50 PM 50.0 °F - 32.0 °F 50% 29.58 in 10.0 mi WSW 11.5 mph 19.6 mph N/A   Clear
1:10 PM 50.0 °F - 32.0 °F 50% 29.57 in 10.0 mi WSW 13.8 mph 20.7 mph N/A   Clear
1:30 PM 50.0 °F - 32.0 °F 50% 29.57 in 10.0 mi WSW 15.0 mph 20.7 mph N/A   Clear
1:50 PM 50.0 °F - 32.0 °F 50% 29.56 in 10.0 mi WSW 13.8 mph 20.7 mph N/A   Clear
2:10 PM 51.8 °F - 32.0 °F 47% 29.55 in 10.0 mi WSW 13.8 mph 18.4 mph N/A   Clear
2:30 PM 51.8 °F - 32.0 °F 47% 29.54 in 10.0 mi WSW 10.4 mph 17.3 mph N/A   Clear
2:50 PM 51.8 °F - 32.0 °F 47% 29.55 in 10.0 mi WSW 13.8 mph 20.7 mph N/A   Clear
3:10 PM 51.8 °F - 32.0 °F 47% 29.55 in 10.0 mi WSW 12.7 mph 18.4 mph N/A   Clear
3:30 PM 53.6 °F - 32.0 °F 44% 29.55 in 10.0 mi WSW 10.4 mph 18.4 mph N/A   Clear
3:50 PM 51.8 °F - 32.0 °F 47% 29.55 in 10.0 mi West 15.0 mph 19.6 mph N/A   Clear
4:10 PM 51.8 °F - 32.0 °F 47% 29.56 in 10.0 mi WSW 12.7 mph 19.6 mph N/A   Clear
4:30 PM 51.8 °F - 32.0 °F 47% 29.57 in 10.0 mi West 10.4 mph 17.3 mph N/A   Clear
4:50 PM 51.8 °F - 32.0 °F 47% 29.57 in 10.0 mi West 11.5 mph - N/A   Clear
5:10 PM 50.0 °F - 32.0 °F 50% 29.57 in 10.0 mi WSW 9.2 mph - N/A   Clear
5:30 PM 50.0 °F - 32.0 °F 50% 29.57 in 10.0 mi WSW 9.2 mph - N/A   Clear
5:50 PM 50.0 °F - 32.0 °F 50% 29.58 in 10.0 mi WSW 8.1 mph - N/A   Clear
6:10 PM 48.2 °F - 32.0 °F 54% 29.59 in 10.0 mi WSW 8.1 mph - N/A   Clear
6:30 PM 48.2 °F - 32.0 °F 54% 29.59 in 10.0 mi WSW 5.8 mph - N/A   Clear
6:50 PM 46.4 °F 42.9 °F 32.0 °F 57% 29.60 in 10.0 mi SW 6.9 mph - N/A   Clear
7:10 PM 46.4 °F 44.3 °F 32.0 °F 57% 29.61 in 10.0 mi SW 4.6 mph - N/A   Clear
7:30 PM 44.6 °F 40.7 °F 32.0 °F 61% 29.62 in 10.0 mi SW 6.9 mph - N/A   Clear
7:50 PM 44.6 °F 42.2 °F 32.0 °F 61% 29.63 in 10.0 mi SW 4.6 mph - N/A   Clear
8:10 PM 44.6 °F 42.2 °F 32.0 °F 61% 29.63 in 10.0 mi SW 4.6 mph - N/A   Clear
8:30 PM 44.6 °F 43.1 °F 32.0 °F 61% 29.63 in 10.0 mi SSW 3.5 mph - N/A   Clear
8:50 PM 39.2 °F - 32.0 °F 75% 29.63 in 10.0 mi Calm Calm - N/A   Clear
9:10 PM 41.0 °F - 32.0 °F 70% 29.63 in 10.0 mi Calm Calm - N/A   Clear
9:30 PM 39.2 °F 37.0 °F 32.0 °F 75% 29.64 in 10.0 mi SW 3.5 mph - N/A   Clear
9:50 PM 41.0 °F - 32.0 °F 70% 29.63 in 10.0 mi Calm Calm - N/A   Clear
10:10 PM 41.0 °F 39.0 °F 32.0 °F 70% 29.63 in 10.0 mi SSW 3.5 mph - N/A   Scattered Clouds
10:30 PM 42.8 °F 41.1 °F 32.0 °F 66% 29.63 in 10.0 mi SW 3.5 mph - N/A   Scattered Clouds
10:50 PM 41.0 °F - 32.0 °F 70% 29.63 in 10.0 mi Calm Calm - N/A   Scattered Clouds
11:10 PM 41.0 °F 39.0 °F 32.0 °F 70% 29.64 in 10.0 mi West 3.5 mph - N/A   Scattered Clouds
11:30 PM 42.8 °F 39.3 °F 32.0 °F 66% 29.64 in 10.0 mi West 5.8 mph - N/A   Overcast
11:50 PM 42.8 °F 38.0 °F 32.0 °F 66% 29.65 in 10.0 mi West 8.1 mph - N/A   Mostly Cloudy